Sitka, Alaska, United States (99835)
Lat: 57.05N, Lon: 135.33W
Wx Zone: AKZ023
Local Info
Past Weather Observations for Saturday, August 29, 2015

NOTE: This archive is for the closest National Weather Service station to Sitka. Information may differ from the station used for current weather conditions.

Click here for Long-term Archive

Time Weather Temperature Dewpoint Humidity Pressure Winds Precip Visibility
23:53
Overcast
52°F / 11°C 52°F / 11°C 100% 29.18 in
(988 mb)
ESE 8.1 mph
(ESE 13 kph)
- 10SM
22:53
Mostly Cloudy
52°F / 11°C 52°F / 11°C 100% 29.18 in
(988 mb)
SE 6.9 mph
(SE 11 kph)
0.00 in
(0.00 mm)
10SM
22:24
Mostly Cloudy
54°F / 12°C 52°F / 11°C 94% 29.18 in
(988 mb)
ESE 6.9 mph
(ESE 11 kph)
0.00 in
(0.00 mm)
10SM
21:53
Overcast
Light Rain
54°F / 12°C 52°F / 11°C 94% 29.21 in
(989 mb)
ESE 9.2 mph
(ESE 15 kph)
0.00 in
(0.00 mm)
10SM
20:53
Mostly Cloudy
54°F / 12°C 52°F / 11°C 94% 29.24 in
(990 mb)
E 5.8 mph
(E 9 kph)
0.12 in
(3.05 mm)
10SM
20:25
Overcast
Heavy Rain
54°F / 12°C 52°F / 11°C 94% 29.24 in
(990 mb)
ESE 6.9 mph
(ESE 11 kph)
0.11 in
(2.79 mm)
2SM
19:53
Overcast
54°F / 12°C 52°F / 11°C 94% 29.24 in
(990 mb)
SE 6.9 mph
(SE 11 kph)
0.01 in
(0.25 mm)
10SM
19:13
Overcast
Light Rain
55°F / 13°C 52°F / 11°C 88% 29.24 in
(990 mb)
NNW 4.6 mph
(NNW 7 kph)
0.01 in
(0.25 mm)
9SM
18:53
Overcast
55°F / 13°C 52°F / 11°C 88% 29.24 in
(990 mb)
N 8.1 mph
(N 13 kph)
- 10SM
17:53
Mostly Cloudy
57°F / 14°C 52°F / 11°C 82% 29.24 in
(990 mb)
SSW 6.9 mph
(SSW 11 kph)
- 10SM
16:53
Mostly Cloudy
57°F / 14°C 46°F / 8°C 67% 29.24 in
(990 mb)
SE 5.8 mph
(SE 9 kph)
- 10SM
15:53
Overcast
59°F / 15°C 46°F / 8°C 63% 29.24 in
(990 mb)
SE 9.2 mph
(SE 15 kph)
- 10SM
14:53
Overcast
59°F / 15°C 46°F / 8°C 63% 29.24 in
(990 mb)
SE 8.1 mph
(SE 13 kph)
- 10SM
13:53
Overcast
57°F / 14°C 48°F / 9°C 72% 29.27 in
(991 mb)
SE 10.4 mph
(SE 17 kph)
- 10SM
12:53
Overcast
57°F / 14°C 46°F / 8°C 67% 29.27 in
(991 mb)
ESE 10.4 mph
(ESE 17 kph)
- 10SM
11:53
Mostly Cloudy
55°F / 13°C 48°F / 9°C 77% 29.27 in
(991 mb)
ESE 8.1 mph
(ESE 13 kph)
- 10SM
10:53
Mostly Cloudy
54°F / 12°C 52°F / 11°C 94% 29.27 in
(991 mb)
NW 5.8 mph
(NW 9 kph)
0.00 in
(0.00 mm)
10SM
09:53
Mostly Cloudy
Light Rain
54°F / 12°C 52°F / 11°C 94% 29.27 in
(991 mb)
Calm 0.02 in
(0.51 mm)
6SM
08:56
Mostly Cloudy
52°F / 11°C 52°F / 11°C 100% 29.27 in
(991 mb)
Calm - 10SM
08:53
Overcast
52°F / 11°C 52°F / 11°C 100% 29.27 in
(991 mb)
Calm 0.00 in
(0.00 mm)
10SM
07:53
Mostly Cloudy
Light Rain
52°F / 11°C 52°F / 11°C 100% 29.3 in
(992 mb)
NW 4.6 mph
(NW 7 kph)
0.00 in
(0.00 mm)
10SM
06:53
Mostly Cloudy
52°F / 11°C 52°F / 11°C 100% 29.3 in
(992 mb)
NNW 3.5 mph
(NNW 6 kph)
- 10SM
05:53
Mostly Cloudy
50°F / 10°C 50°F / 10°C 100% 29.33 in
(993 mb)
NNW 3.5 mph
(NNW 6 kph)
- 10SM
04:53
Partly Cloudy
50°F / 10°C 50°F / 10°C 100% 29.33 in
(993 mb)
N 4.6 mph
(N 7 kph)
- 10SM
03:53
Partly Cloudy
50°F / 10°C 50°F / 10°C 100% 29.33 in
(993 mb)
Calm - 10SM
02:53
Partly Cloudy
48°F / 9°C 48°F / 9°C 100% 29.36 in
(994 mb)
Calm - 10SM
01:53
Partly Cloudy
48°F / 9°C 48°F / 9°C 100% 29.36 in
(994 mb)
Calm - 10SM
00:53
Partly Cloudy
50°F / 10°C 50°F / 10°C 100% 29.36 in
(994 mb)
E 4.6 mph
(E 7 kph)
- 10SM
Time Weather Temperature Dewpoint Humidity Pressure Winds Precip Visibility


Weather for websites

WeatherForYou.com, LLC is not responsible for any damages or problems caused by this service. Current weather conditions are obtained from the closest station including government and personal stations which may have varying degrees of accuracy. Weather forecasts are derived from the NOAA NDFD. Like all things, this site belongs to Jesus Christ... He just trusts us to maintain it. If you have any questions or comments email webmaster@weatherforyou.com

Copyright © 2015, WeatherForYou.com LLC. All rights reserved.